Flag for U.S.A. Weather past 2 weeks in Warren, Michigan, U.S.A.

Now
41 °F

Overcast.


Feels Like: 35 °F
Forecast: 38 / 54 °F
Wind: 10 mph from North

Location: Detroit City Airport


UV Index: 5 (Moderate)

Visibility: 10 mi


Pressure: 30.07 "Hg

Humidity: 60%

Dew point: 28 °F

Location of WarrenLocation

Historic Weather in Warren

°F

Warren temperature yesterday

Maximum temperature yesterday: 64 °F (at 12:53 AM)
Minimum temperature yesterday: 44 °F (at 11:53 PM)
Average temperature yesterday: 55 °F

Past Weeks' High & Low Weather Summary

 TemperatureHumidityPressure
High79 °F (Apr 13, 3:53 PM)88% (Apr 15, 12:53 AM)30.49 "Hg (Apr 15, 12:53 AM)
Low24 °F (Apr 16, 4:53 AM)19% (Apr 20, 3:53 PM)29.44 "Hg (Apr 14, 6:53 AM)
Average52 °F52%30.01 "Hg
* Reported Apr 8 7:53 AM — Apr 23 7:53 AM, Warren, Weather by CustomWeather, © 2014

Note: Actual official high and low records may vary slightly from our data, if they occured in-between our weather recording intervals... More about our weather records

Advertising

Historic Weather Conditions — Data for Previous 24 hours

 ConditionsComfort  
Time TempWeatherWind HumidityBarometerVisibility
7:53 AM
Apr 23
40 °FOvercast.13 mph63%30.05 "Hg10 mi
6:53 AM40 °FOvercast.10 mph65%30.03 "Hg10 mi
5:53 AM40 °FOvercast.15 mph63%30.00 "Hg10 mi
5:00 AM41 °FOvercast.12 mph60%29.98 "Hg10 mi
3:53 AM41 °FMostly cloudy.12 mph60%29.96 "Hg10 mi
2:53 AM41 °FMostly cloudy.9 mph62%29.96 "Hg10 mi
1:53 AM42 °FOvercast.10 mph60%29.96 "Hg10 mi
12:53 AM42 °FOvercast.13 mph60%29.95 "Hg10 mi
11:53 PM
Apr 22
44 °FOvercast.15 mph55%29.93 "Hg10 mi
10:53 PM45 °FMostly cloudy.14 mph56%29.92 "Hg10 mi
9:53 PM45 °FPassing clouds.12 mph56%29.91 "Hg10 mi
8:53 PM47 °FOvercast.17 mph52%29.88 "Hg10 mi
7:53 PM48 °FOvercast.16 mph52%29.86 "Hg10 mi
6:53 PM49 °FOvercast.20 mph52%29.83 "Hg10 mi
5:53 PM52 °FOvercast.18 mph49%29.81 "Hg10 mi
4:53 PM53 °FOvercast.13 mph47%29.78 "Hg10 mi
3:53 PM54 °FOvercast.14 mph43%29.77 "Hg10 mi
2:53 PM55 °FOvercast.16 mph42%29.77 "Hg10 mi
1:53 PM55 °FSunny.14 mph42%29.76 "Hg10 mi
12:53 PM54 °FSunny.17 mph45%29.76 "Hg10 mi
11:53 AM54 °FSunny.13 mph47%29.76 "Hg10 mi
10:53 AM53 °FPassing clouds.13 mph55%29.75 "Hg10 mi
9:53 AM53 °FPartly sunny.10 mph61%29.73 "Hg10 mi
Weather by CustomWeather, © 2014

See weather overview